sat.trackr.live / text

‹ back to catalog

STARLINK-31822

NORAD 59752 · 2024-090Y

PAYLOAD ACTIVE UNKNOWN

§ Identity

Operator
Country
US
Launch date
2024-05-13
Launch site
AFETR
Launch vehicle
Mass (kg)
RCS (m²)

Purposes: comms

External: N2YO · Heavens-Above · Gunter

§ Orbital elements

Epoch: 2026-05-25T04:55:56.948736Z

Period
94.27 min
Inclination
43.0004°
Eccentricity
0.0001251
Mean motion
15.27564262 rev/d
Perigee alt
482.2 km
Apogee alt
484.0 km
Semi-major
6,861.2 km
B*
-3.2375e-6
RAAN
111.2536°
Arg perigee
264.4064°
Mean anomaly
95.6645°
Rev number
11,513

§ Raw data

STARLINK-318221 59752U 24090Y   26145.20552024 -.00000351  00000+0 -32375-5 0  99962 59752  43.0004 111.2536 0001251 264.4064  95.6645 15.27564262115131

JSON: /api/v1/satellites/59752 · /tle

For live sub-satellite position, see the globe view (requires WebGL).

§ Visibility from observer

Set your observer location to see the next 7 days of passes ≥ 10°. The values pass through the URL so the page stays shareable.

No JS? Fill the form by hand. The geolocation button needs JavaScript.